Погода в Дур-Дуре

Россия / Республика Северная Осетия — Алания     43°07′26″N   44°01′35″E
темп.,
°C
ветер,
м/с
пор.,
м/с
влажн.,
%
обл.,
%
осадки,
мм/ч
давл.,
гПа
погр.,
м
2 декабря, чт
чт200:00−2ююв128479 0.1 1011203
03:00−2юз22702 0.1 101270
06:00−2ююз336023 0.0 101476
09:00−1с23563 0.0 1018466
12:00−2св228876 0.1 1020366
15:00−2св218373 0.3 1021367
18:00−2ю127711 0.0 102367
21:00−2ююз22601 0.0 102329
3 декабря, пт
пт300:00−2ююз32490 0.0 102225
03:00−1ююз33410 0.0 102233
06:00−1ююз43387 0.0 102139
09:00+2ююз2238100 0.0 102050
12:00+6юв0238100 0.0 1017227
15:00+4ююз125426 0.0 101765
18:00+2ююз335262 0.0 101937
21:00+2ююз43480 0.0 102042
4 декабря, сб
сб400:00+2ююз43454 0.0 102040
03:00+2ююз434353 0.0 102132
06:00+2ююз424012 0.0 102124
09:00+5ююз223813 0.0 102030
12:00+8св11332 0.0 1016352
15:00+7св004746 0.0 101785
18:00+3ююз33512 0.0 101832
21:00+3ююз434886 0.0 101746
5 декабря, вс
вс500:00+3ююз434850 0.0 101648
03:00+3ююз434667 0.0 101543
06:00+4ююз3343100 0.0 101433
09:00+6ююз2242100 0.0 101427
12:00+7с114264 0.0 1013180
15:00+5ссв1153100 0.0 1014101
18:00+3юз1156100 0.0 101712
21:00+2ююз115597 0.0 101810
6 декабря, пн
пн600:00+2ююз225463 0.0 101814
03:00+2ююз225233 0.0 101915
06:00+2ююз225140 0.0 102016
09:00+5ююз11465 0.0 102027
12:00+7св21423 0.0 1019346
15:00+6св11560 0.0 1020158
18:00+3ююз11644 0.0 102314
21:00+3ююз225327 0.0 102317